When you browse on this site, cookies collect data to enhance your experience and personalize the content and advertising you see.
Visit our Privacy Policy to learn more. By continuing to use the site, you agree to this use of cookies and data.

Météo par heure à Wafangdian

Ce jour, 3 Juillet, Vendredi

Heure Température Précipitation Vent Pression Humidité
00:00 +20°C° 0 mm 4 m/s 746 mmHg 91%
01:00 +20°C° 0 mm 4 m/s 746 mmHg 91%
02:00 +19°C° 0 mm 4 m/s 746 mmHg 93%
03:00 +19°C° 0 mm 4 m/s 747 mmHg 93%
04:00 +19°C° 0 mm 5 m/s 747 mmHg 94%
05:00 +19°C° 0 mm 5 m/s 747 mmHg 94%
06:00 +21°C° 0.1 mm 5 m/s 747 mmHg 88%
07:00 +22°C° 0.1 mm 5 m/s 747 mmHg 82%
08:00 +23°C° 0 mm 5 m/s 748 mmHg 75%
09:00 +26°C° 0 mm 5 m/s 748 mmHg 69%
10:00 +27°C° 0 mm 4 m/s 747 mmHg 62%
11:00 +28°C° 0 mm 4 m/s 747 mmHg 55%
12:00 +28°C° 0.1 mm 4 m/s 747 mmHg 54%
13:00 +29°C° 0.1 mm 4 m/s 747 mmHg 53%
14:00 +29°C° 0 mm 4 m/s 747 mmHg 51%
15:00 +28°C° 0 mm 3 m/s 746 mmHg 52%
16:00 +28°C° 0 mm 3 m/s 746 mmHg 54%
17:00 +27°C° 0 mm 2 m/s 746 mmHg 56%
18:00 +25°C° 0 mm 2 m/s 746 mmHg 63%
19:00 +24°C° 0 mm 1 m/s 746 mmHg 69%
20:00 +22°C° 0 mm 1 m/s 746 mmHg 76%
21:00 +21°C° 0 mm 1 m/s 746 mmHg 77%
22:00 +21°C° 0 mm 1 m/s 746 mmHg 78%
23:00 +20°C° 0 mm 1 m/s 746 mmHg 80%

Demain, 4 Juillet, Samedi

Heure Température Précipitation Vent Pression Humidité
00:00 +20°C° 0 mm 1 m/s 746 mmHg 81%
01:00 +20°C° 0 mm 1 m/s 745 mmHg 81%
02:00 +20°C° 0 mm 1 m/s 745 mmHg 82%
03:00 +20°C° 0 mm 1 m/s 745 mmHg 83%
04:00 +20°C° 0 mm 1 m/s 745 mmHg 85%
05:00 +20°C° 0 mm 1 m/s 745 mmHg 86%
06:00 +21°C° 0 mm 2 m/s 745 mmHg 78%
07:00 +24°C° 0 mm 2 m/s 745 mmHg 70%
08:00 +26°C° 0 mm 3 m/s 745 mmHg 61%
09:00 +27°C° 0 mm 3 m/s 745 mmHg 58%
10:00 +28°C° 0 mm 4 m/s 745 mmHg 55%
11:00 +29°C° 0 mm 4 m/s 745 mmHg 51%
12:00 +29°C° 0 mm 5 m/s 744 mmHg 51%
13:00 +29°C° 0 mm 5 m/s 744 mmHg 51%
14:00 +29°C° 0 mm 5 m/s 743 mmHg 52%
15:00 +29°C° 0 mm 5 m/s 743 mmHg 54%
16:00 +28°C° 0 mm 5 m/s 742 mmHg 56%
17:00 +27°C° 0 mm 5 m/s 742 mmHg 59%
18:00 +25°C° 0 mm 4 m/s 742 mmHg 64%
19:00 +24°C° 0 mm 3 m/s 742 mmHg 68%
20:00 +21°C° 0 mm 2 m/s 742 mmHg 73%
21:00 +21°C° 0 mm 2 m/s 742 mmHg 76%
22:00 +20°C° 0 mm 2 m/s 742 mmHg 78%
23:00 +20°C° 0 mm 2 m/s 742 mmHg 81%

Après-demain, 5 Juillet, Dimanche

Heure Température Précipitation Vent Pression Humidité
00:00 +20°C° 0 mm 2 m/s 741 mmHg 82%
01:00 +20°C° 0 mm 2 m/s 741 mmHg 83%
02:00 +20°C° 0 mm 2 m/s 741 mmHg 84%
03:00 +20°C° 0 mm 2 m/s 741 mmHg 84%
04:00 +20°C° 0 mm 2 m/s 741 mmHg 83%
05:00 +20°C° 0 mm 2 m/s 740 mmHg 82%
06:00 +21°C° 0 mm 3 m/s 741 mmHg 76%
07:00 +23°C° 0 mm 4 m/s 741 mmHg 70%
08:00 +26°C° 0 mm 4 m/s 741 mmHg 63%
09:00 +27°C° 0 mm 5 m/s 741 mmHg 60%
10:00 +28°C° 0 mm 5 m/s 741 mmHg 56%
11:00 +29°C° 0 mm 6 m/s 741 mmHg 53%
12:00 +29°C° 0 mm 6 m/s 740 mmHg 54%
13:00 +29°C° 0 mm 6 m/s 740 mmHg 55%
14:00 +29°C° 0 mm 6 m/s 740 mmHg 55%
15:00 +29°C° 0.1 mm 6 m/s 739 mmHg 57%
16:00 +28°C° 0.1 mm 6 m/s 739 mmHg 60%
17:00 +27°C° 0.1 mm 5 m/s 739 mmHg 62%
18:00 +25°C° 0.1 mm 5 m/s 739 mmHg 69%
19:00 +23°C° 0.1 mm 4 m/s 739 mmHg 77%
20:00 +21°C° 0.1 mm 3 m/s 739 mmHg 85%
21:00 +20°C° 0 mm 3 m/s 739 mmHg 87%
22:00 +20°C° 0 mm 3 m/s 739 mmHg 90%
23:00 +20°C° 0 mm 3 m/s 739 mmHg 93%

6 Juillet, Lundi

Heure Température Précipitation Vent Pression Humidité
00:00 +20°C° 0.1 mm 3 m/s 739 mmHg 94%
01:00 +19°C° 0.1 mm 3 m/s 739 mmHg 95%
02:00 +19°C° 0.1 mm 3 m/s 739 mmHg 97%
03:00 +19°C° 0 mm 3 m/s 739 mmHg 96%
04:00 +20°C° 0 mm 3 m/s 739 mmHg 96%
05:00 +20°C° 0 mm 3 m/s 739 mmHg 96%
06:00 +21°C° 0 mm 4 m/s 739 mmHg 91%
07:00 +21°C° 0 mm 4 m/s 739 mmHg 86%
08:00 +22°C° 0 mm 5 m/s 740 mmHg 81%
09:00 +23°C° 0 mm 5 m/s 740 mmHg 76%
10:00 +26°C° 0 mm 5 m/s 740 mmHg 71%
11:00 +27°C° 0 mm 5 m/s 740 mmHg 66%
12:00 +27°C° 0 mm 5 m/s 740 mmHg 64%
13:00 +27°C° 0 mm 5 m/s 740 mmHg 63%
14:00 +28°C° 0 mm 4 m/s 740 mmHg 61%
15:00 +26°C° 0.2 mm 4 m/s 740 mmHg 68%
16:00 +25°C° 0.2 mm 3 m/s 740 mmHg 74%
17:00 +22°C° 0.2 mm 3 m/s 740 mmHg 81%
18:00 +21°C° 0 mm 3 m/s 740 mmHg 84%
19:00 +21°C° 0 mm 3 m/s 740 mmHg 87%
20:00 +20°C° 0 mm 2 m/s 740 mmHg 90%
21:00 +20°C° 0.1 mm 2 m/s 741 mmHg 90%
22:00 +20°C° 0.1 mm 2 m/s 741 mmHg 90%
23:00 +20°C° 0.1 mm 2 m/s 741 mmHg 89%

7 Juillet, Mardi

Heure Température Précipitation Vent Pression Humidité
00:00 +20°C° 0.5 mm 2 m/s 741 mmHg 91%
01:00 +20°C° 0.5 mm 2 m/s 741 mmHg 92%
02:00 +20°C° 0.5 mm 2 m/s 741 mmHg 93%
03:00 +19°C° 0 mm 2 m/s 741 mmHg 94%
04:00 +19°C° 0 mm 3 m/s 741 mmHg 94%
05:00 +19°C° 0 mm 3 m/s 741 mmHg 95%
06:00 +20°C° 0 mm 3 m/s 742 mmHg 89%
07:00 +22°C° 0 mm 3 m/s 742 mmHg 83%
08:00 +23°C° 0 mm 4 m/s 742 mmHg 77%
09:00 +26°C° 0 mm 4 m/s 743 mmHg 70%
10:00 +28°C° 0 mm 4 m/s 743 mmHg 63%
11:00 +29°C° 0 mm 4 m/s 743 mmHg 56%
12:00 +30°C° 0 mm 3 m/s 743 mmHg 54%
13:00 +30°C° 0 mm 3 m/s 743 mmHg 53%
14:00 +31°C° 0 mm 3 m/s 742 mmHg 51%
15:00 +30°C° 0 mm 3 m/s 742 mmHg 55%
16:00 +29°C° 0 mm 3 m/s 742 mmHg 58%
17:00 +28°C° 0 mm 2 m/s 742 mmHg 62%
18:00 +26°C° 0 mm 2 m/s 742 mmHg 71%
19:00 +25°C° 0 mm 1 m/s 742 mmHg 79%
20:00 +23°C° 0 mm 1 m/s 742 mmHg 87%
21:00 +20°C° 0 mm 0 m/s 743 mmHg 88%
22:00 +20°C° 0 mm 0 m/s 743 mmHg 89%
23:00 +20°C° 0 mm 0 m/s 743 mmHg 90%

8 Juillet, Mercredi

Heure Température Précipitation Vent Pression Humidité
00:00 +20°C° 0 mm 0 m/s 743 mmHg 91%
01:00 +22°C° 0 mm 1 m/s 743 mmHg 91%
02:00 +21°C° 0 mm 1 m/s 743 mmHg 92%
03:00 +21°C° 0 mm 1 m/s 743 mmHg 92%
04:00 +21°C° 0 mm 1 m/s 743 mmHg 92%
05:00 +21°C° 0 mm 1 m/s 743 mmHg 92%
06:00 +24°C° 0 mm 2 m/s 743 mmHg 82%
07:00 +26°C° 0 mm 3 m/s 743 mmHg 72%
08:00 +28°C° 0 mm 3 m/s 744 mmHg 62%
09:00 +30°C° 0 mm 3 m/s 744 mmHg 55%
10:00 +33°C° 0 mm 4 m/s 744 mmHg 48%
11:00 +34°C° 0 mm 4 m/s 743 mmHg 42%
12:00 +35°C° 0 mm 4 m/s 743 mmHg 39%
13:00 +35°C° 0 mm 4 m/s 743 mmHg 37%
14:00 +35°C° 0 mm 4 m/s 743 mmHg 34%
15:00 +35°C° 0 mm 4 m/s 742 mmHg 37%
16:00 +34°C° 0 mm 3 m/s 742 mmHg 40%
17:00 +33°C° 0 mm 3 m/s 742 mmHg 43%
18:00 +29°C° 0 mm 2 m/s 742 mmHg 52%
19:00 +27°C° 0 mm 1 m/s 742 mmHg 60%
20:00 +25°C° 0 mm 1 m/s 742 mmHg 69%
21:00 +24°C° 0 mm 1 m/s 742 mmHg 70%
22:00 +24°C° 0 mm 1 m/s 743 mmHg 71%
23:00 +23°C° 0 mm 1 m/s 743 mmHg 72%
Voir plus